FENGYUN 1C DEB, 30411

Orbit data source: Space-Track

FENGYUN 1C DEB, 30411 is space debris in SSO originally from a launch on Mon, 10 May 1999 UTC launched from the Taiyaun Space Center, China (TSC). Fengyun 1C debris stems from the Chinese weather satellite Fengyun-1C, which was intentionally destroyed by a Chinese anti-satellite missile in 2007. This event dramatically increased the amount of space debris, with thousands of trackable fragments posing hazards to satellites and human spaceflight. The Fengyun 1C debris cloud has become a focal point in discussions about space sustainability and the need for international regulations to prevent the creation of new debris.

Loading next visibility...
Identifier
30411, 1999-025AEA
Orbit
SSO
Country
Flag of CNCN / PRC
Related business
Manufacturer
Unknown
Mission
Spacecraft
Bus & Motor
Unknown
Mass
Unknown
Launch date (UTC)
1999-05-10 (27 years ago)
Launch vehicle
Unknown
Launch site
Taiyaun Space Center, China (TSC)
Object type
Payload
Rocket body
Debris
Shape & HBR
Unknown shape, 0.1 m
Radar Cross Section
Medium (>0.1 m² and <1 m²)

Expand to show TLE details & history
Last TLE update: 6 hours ago

TLE from 6 hours ago
0 FENGYUN 1C DEB
1 30411U 99025AEA 26164.72834426  .00002606  00000-0  14313-2 0  9997
2 30411  98.5781  71.4536 0121059 309.5362  49.5159 14.08922285985591
Epoch: 2026-06-13T17:28Z
TLE epoch observation values (Epoch: 2026-06-13T17:28:48.944Z)
Latitude
-0.00002°
Longitude
-92.7896°
Altitude
809.663 km
Speed
7.477 km/s
True Right ascension
04h 45m 48s
True Declination
0° 00' 00"
Sunlit
Object was in daylight at epoch
Visualization orbit readout
Latitude
Unknown
Longitude
Unknown
Altitude
Unknown
Speed
Unknown
Apparent Right ascension
Unknown
Apparent Declination
Unknown
Sunlit
N/A
Visualization observer readout
Local Sidereal Time
10:18:55
Azimuth
Unknown
Elevation
Unknown
Doppler factor
Unknown
Orbital elements
Apogee altitude
947.856 km
Perigee altitude
772.602 km
Semi-major axis
7,238.366 km
Eccentricity
0.01211
Inclination
98.5781°
RAAN
71.4536°
Arg. of periapsis
309.5362°
True anomaly
50.58141°
Mean anomaly
49.5159°
Eccentric anomaly
50.04761°
Mean motion
3.52438 °/min
Orbital period
102.15 mins
BSTAR
0.0014313
Loading maneuver chart data...
Computing Atmospheric mass density...

Documentation

Showing up to 5 results
|